Time,TemperatureF,DewpointF,PressureIn,WindDirection,WindDirectionDegrees,WindSpeedMPH,WindSpeedGustMPH,Humidity,HourlyPrecipIn,Conditions,Clouds,dailyrainin,SoftwareType,DateUTC
2013-02-04 00:00:00,19.8,16.0,30.21,NE,41,1.0,2.0,85,0.00,,,0.10,Wunderground v.1.15,2013-02-04 05:00:00,
2013-02-04 00:02:00,19.8,16.0,30.21,NE,39,1.0,3.0,85,0.00,,,0.10,Wunderground v.1.15,2013-02-04 05:02:00,
2013-02-04 00:06:00,19.8,16.0,30.21,NNE,23,2.0,3.0,85,0.00,,,0.00,Wunderground v.1.15,2013-02-04 05:06:00,
2013-02-04 00:12:00,20.0,15.9,30.21,North,6,2.0,2.0,84,0.00,,,0.00,Wunderground v.1.15,2013-02-04 05:12:00,
2013-02-04 00:17:00,19.7,15.6,30.21,NE,41,1.0,2.0,84,0.00,,,0.00,Wunderground v.1.15,2013-02-04 05:17:00,
2013-02-04 00:24:00,19.6,15.6,30.21,NE,44,1.0,1.0,84,0.00,,,0.00,Wunderground v.1.15,2013-02-04 05:24:00,
2013-02-04 00:30:00,19.5,15.5,30.21,NE,44,1.0,1.0,84,0.00,,,0.00,Wunderground v.1.15,2013-02-04 05:30:00,
2013-02-04 00:36:00,19.6,15.0,30.21,WSW,241,1.0,3.0,82,0.00,,,0.00,Wunderground v.1.15,2013-02-04 05:36:00,
2013-02-04 00:38:00,19.7,15.1,30.21,North,356,1.0,3.0,82,0.00,,,0.00,Wunderground v.1.15,2013-02-04 05:38:00,
2013-02-04 00:43:00,20.0,14.8,30.21,East,79,1.0,3.0,80,0.00,,,0.00,Wunderground v.1.15,2013-02-04 05:43:00,
2013-02-04 00:50:00,19.9,14.7,30.21,NW,321,1.0,1.0,80,0.00,,,0.00,Wunderground v.1.15,2013-02-04 05:50:00,
2013-02-04 00:56:00,19.8,14.6,30.21,NNE,30,1.0,1.0,80,0.00,,,0.00,Wunderground v.1.15,2013-02-04 05:56:00,
2013-02-04 01:02:00,20.0,14.8,30.21,NNE,27,1.0,1.0,80,0.00,,,0.00,Wunderground v.1.15,2013-02-04 06:02:00,
2013-02-04 01:08:00,19.7,14.5,30.21,North,10,1.0,2.0,80,0.00,,,0.00,Wunderground v.1.15,2013-02-04 06:08:00,
2013-02-04 01:14:00,19.8,14.3,30.21,ESE,120,1.0,1.0,79,0.00,,,0.00,Wunderground v.1.15,2013-02-04 06:14:00,
2013-02-04 01:20:00,19.8,14.6,30.21,NE,34,0.0,1.0,80,0.00,,,0.00,Wunderground v.1.15,2013-02-04 06:20:00,
2013-02-04 01:26:00,19.7,14.2,30.21,North,352,0.0,2.0,79,0.00,,,0.00,Wunderground v.1.15,2013-02-04 06:26:00,
2013-02-04 01:31:00,20.0,14.2,30.21,NNE,18,1.0,1.0,78,0.00,,,0.00,Wunderground v.1.15,2013-02-04 06:31:00,
2013-02-04 01:38:00,19.9,14.1,30.22,NE,39,1.0,2.0,78,0.00,,,0.00,Wunderground v.1.15,2013-02-04 06:38:00,
2013-02-04 01:44:00,19.8,14.0,30.22,North,4,1.0,2.0,78,0.00,,,0.00,Wunderground v.1.15,2013-02-04 06:44:00,
2013-02-04 01:50:00,19.9,13.9,30.22,NNE,26,1.0,2.0,77,0.00,,,0.00,Wunderground v.1.15,2013-02-04 06:50:00,
2013-02-04 01:55:00,20.1,13.7,30.22,ENE,57,1.0,2.0,76,0.00,,,0.00,Wunderground v.1.15,2013-02-04 06:55:00,
2013-02-04 02:02:00,20.1,13.4,30.21,North,4,0.0,1.0,75,0.00,,,0.00,Wunderground v.1.15,2013-02-04 07:02:00,
2013-02-04 02:08:00,20.0,12.7,30.21,West,264,0.0,1.0,73,0.00,,,0.00,Wunderground v.1.15,2013-02-04 07:08:00,
2013-02-04 02:13:00,20.2,12.6,30.21,NW,307,0.0,1.0,72,0.00,,,0.00,Wunderground v.1.15,2013-02-04 07:13:00,
2013-02-04 02:20:00,20.8,12.6,30.21,WNW,297,0.0,1.0,70,0.00,,,0.00,Wunderground v.1.15,2013-02-04 07:20:00,
2013-02-04 02:26:00,21.1,12.5,30.21,NNE,30,1.0,1.0,69,0.00,,,0.00,Wunderground v.1.15,2013-02-04 07:26:00,
2013-02-04 02:32:00,21.1,12.5,30.22,North,356,1.0,1.0,69,0.00,,,0.00,Wunderground v.1.15,2013-02-04 07:32:00,
2013-02-04 02:37:00,21.4,12.8,30.22,NNE,25,0.0,1.0,69,0.00,,,0.00,Wunderground v.1.15,2013-02-04 07:37:00,
2013-02-04 02:44:00,22.0,13.0,30.21,NNE,12,1.0,2.0,68,0.00,,,0.00,Wunderground v.1.15,2013-02-04 07:44:00,
2013-02-04 02:50:00,22.3,13.0,30.20,NNE,15,2.0,2.0,67,0.00,,,0.00,Wunderground v.1.15,2013-02-04 07:50:00,
2013-02-04 02:55:00,22.6,12.9,30.20,North,4,2.0,3.0,66,0.00,,,0.00,Wunderground v.1.15,2013-02-04 07:55:00,
2013-02-04 03:02:00,22.9,12.9,30.20,NNE,30,2.0,2.0,65,0.00,,,0.00,Wunderground v.1.15,2013-02-04 08:02:00,
2013-02-04 03:08:00,23.2,13.2,30.20,NNE,32,1.0,2.0,65,0.00,,,0.00,Wunderground v.1.15,2013-02-04 08:08:00,
2013-02-04 03:14:00,23.4,13.4,30.20,NE,37,1.0,1.0,65,0.00,,,0.00,Wunderground v.1.15,2013-02-04 08:14:00,
2013-02-04 03:19:00,24.0,13.6,30.21,ENE,61,1.0,2.0,64,0.00,,,0.00,Wunderground v.1.15,2013-02-04 08:19:00,
2013-02-04 03:26:00,24.4,14.0,30.20,NNE,18,1.0,2.0,64,0.00,,,0.00,Wunderground v.1.15,2013-02-04 08:26:00,
2013-02-04 03:32:00,24.4,14.0,30.20,North,6,1.0,1.0,64,0.00,,,0.00,Wunderground v.1.15,2013-02-04 08:32:00,
2013-02-04 03:38:00,24.2,14.1,30.21,NW,314,1.0,1.0,65,0.00,,,0.00,Wunderground v.1.15,2013-02-04 08:38:00,
2013-02-04 03:44:00,24.4,14.0,30.21,West,278,1.0,1.0,64,0.00,,,0.00,Wunderground v.1.15,2013-02-04 08:44:00,
2013-02-04 03:50:00,24.8,14.0,30.21,NE,37,1.0,1.0,63,0.00,,,0.00,Wunderground v.1.15,2013-02-04 08:50:00,
2013-02-04 03:56:00,25.2,14.0,30.21,North,11,1.0,2.0,62,0.00,,,0.00,Wunderground v.1.15,2013-02-04 08:56:00,
2013-02-04 04:01:00,25.3,13.7,30.21,NNE,30,1.0,1.0,61,0.00,,,0.00,Wunderground v.1.15,2013-02-04 09:01:00,
2013-02-04 04:08:00,25.4,14.2,30.21,NNE,26,1.0,2.0,62,0.00,,,0.00,Wunderground v.1.15,2013-02-04 09:08:00,
2013-02-04 04:14:00,25.9,14.7,30.21,NE,50,1.0,6.0,62,0.00,,,0.00,Wunderground v.1.15,2013-02-04 09:14:00,
2013-02-04 04:20:00,25.9,14.7,30.22,NNW,342,2.0,2.0,62,0.00,,,0.00,Wunderground v.1.15,2013-02-04 09:20:00,
2013-02-04 04:26:00,26.2,14.6,30.22,ENE,62,2.0,6.0,61,0.00,,,0.00,Wunderground v.1.15,2013-02-04 09:26:00,
2013-02-04 04:32:00,26.5,14.9,30.22,NNE,15,2.0,2.0,61,0.00,,,0.00,Wunderground v.1.15,2013-02-04 09:32:00,
2013-02-04 04:38:00,26.5,14.9,30.22,North,354,1.0,2.0,61,0.00,,,0.00,Wunderground v.1.15,2013-02-04 09:38:00,
2013-02-04 04:44:00,26.4,15.1,30.22,West,269,1.0,1.0,62,0.00,,,0.00,Wunderground v.1.15,2013-02-04 09:44:00,
2013-02-04 04:49:00,26.5,15.6,30.22,West,269,0.0,1.0,63,0.00,,,0.00,Wunderground v.1.15,2013-02-04 09:49:00,
2013-02-04 04:56:00,25.8,16.0,30.22,SW,218,0.0,1.0,66,0.00,,,0.00,Wunderground v.1.15,2013-02-04 09:56:00,
2013-02-04 05:02:00,25.2,16.1,30.22,NNE,15,0.0,1.0,68,0.00,,,0.00,Wunderground v.1.15,2013-02-04 10:02:00,
2013-02-04 05:08:00,24.1,15.7,30.22,WSW,245,0.0,1.0,70,0.00,,,0.00,Wunderground v.1.15,2013-02-04 10:08:00,
2013-02-04 05:13:00,24.8,15.0,30.22,WSW,245,0.0,1.0,66,0.00,,,0.00,Wunderground v.1.15,2013-02-04 10:13:00,
2013-02-04 05:20:00,25.5,16.1,30.22,South,177,0.0,1.0,67,0.00,,,0.00,Wunderground v.1.15,2013-02-04 10:20:00,
2013-02-04 05:26:00,26.5,16.7,30.22,SSW,203,1.0,1.0,66,0.00,,,0.00,Wunderground v.1.15,2013-02-04 10:26:00,
2013-02-04 05:31:00,27.0,16.8,30.22,SSW,210,0.0,1.0,65,0.00,,,0.00,Wunderground v.1.15,2013-02-04 10:31:00,
2013-02-04 05:37:00,27.2,17.0,30.22,SSW,210,0.0,1.0,65,0.00,,,0.00,Wunderground v.1.15,2013-02-04 10:37:00,
2013-02-04 05:44:00,27.4,17.2,30.22,SSW,205,0.0,1.0,65,0.00,,,0.00,Wunderground v.1.15,2013-02-04 10:44:00,
2013-02-04 05:50:00,27.3,18.1,30.22,SSW,205,0.0,1.0,68,0.00,,,0.00,Wunderground v.1.15,2013-02-04 10:50:00,
2013-02-04 05:55:00,27.4,17.9,30.22,West,259,0.0,1.0,67,0.00,,,0.00,Wunderground v.1.15,2013-02-04 10:55:00,
2013-02-04 06:02:00,27.8,18.3,30.22,North,356,0.0,1.0,67,0.00,,,0.00,Wunderground v.1.15,2013-02-04 11:02:00,
2013-02-04 06:08:00,28.0,18.1,30.22,NNE,24,0.0,2.0,66,0.00,,,0.00,Wunderground v.1.15,2013-02-04 11:08:00,
2013-02-04 06:14:00,28.3,18.7,30.22,NW,315,1.0,1.0,67,0.00,,,0.00,Wunderground v.1.15,2013-02-04 11:14:00,
2013-02-04 06:20:00,28.5,18.2,30.22,North,349,1.0,1.0,65,0.00,,,0.00,Wunderground v.1.15,2013-02-04 11:20:00,
2013-02-04 06:25:00,29.1,18.1,30.22,NNE,21,1.0,3.0,63,0.00,,,0.00,Wunderground v.1.15,2013-02-04 11:25:00,
2013-02-04 06:32:00,29.5,18.8,30.22,WNW,288,1.0,1.0,64,0.00,,,0.00,Wunderground v.1.15,2013-02-04 11:32:00,
2013-02-04 06:38:00,29.4,18.7,30.22,WNW,291,0.0,1.0,64,0.00,,,0.00,Wunderground v.1.15,2013-02-04 11:38:00,
2013-02-04 06:44:00,29.7,18.6,30.22,NE,43,1.0,1.0,63,0.00,,,0.00,Wunderground v.1.15,2013-02-04 11:44:00,
2013-02-04 06:49:00,29.7,18.3,30.22,West,266,1.0,1.0,62,0.00,,,0.00,Wunderground v.1.15,2013-02-04 11:49:00,
2013-02-04 06:56:00,29.6,18.5,30.23,NNW,333,0.0,1.0,63,0.00,,,0.00,Wunderground v.1.15,2013-02-04 11:56:00,
2013-02-04 07:02:00,29.7,18.6,30.23,SW,235,0.0,1.0,63,0.00,,,0.00,Wunderground v.1.15,2013-02-04 12:02:00,
2013-02-04 07:08:00,29.6,18.5,30.23,NNE,24,0.0,1.0,63,0.00,,,0.00,Wunderground v.1.15,2013-02-04 12:08:00,
2013-02-04 07:14:00,29.9,18.8,30.24,SSW,211,0.0,1.0,63,0.00,,,0.00,Wunderground v.1.15,2013-02-04 12:14:00,
2013-02-04 07:19:00,29.9,19.2,30.24,WSW,238,0.0,1.0,64,0.00,,,0.00,Wunderground v.1.15,2013-02-04 12:19:00,
2013-02-04 07:26:00,30.1,19.4,30.24,SW,233,0.0,1.0,64,0.00,,,0.00,Wunderground v.1.15,2013-02-04 12:26:00,
2013-02-04 07:32:00,30.2,19.5,30.25,SSW,208,0.0,1.0,64,0.00,,,0.00,Wunderground v.1.15,2013-02-04 12:32:00,
2013-02-04 07:38:00,30.3,19.2,30.25,SSW,208,0.0,1.0,63,0.00,,,0.00,Wunderground v.1.15,2013-02-04 12:38:00,
2013-02-04 07:43:00,30.6,19.5,30.24,North,9,0.0,1.0,63,0.00,,,0.00,Wunderground v.1.15,2013-02-04 12:43:00,
2013-02-04 07:50:00,30.4,19.3,30.25,North,359,1.0,1.0,63,0.00,,,0.00,Wunderground v.1.15,2013-02-04 12:50:00,
2013-02-04 07:56:00,30.8,19.3,30.25,NNE,25,1.0,2.0,62,0.00,,,0.00,Wunderground v.1.15,2013-02-04 12:56:00,
2013-02-04 08:02:00,30.9,19.4,30.25,NNE,24,1.0,1.0,62,0.00,,,0.00,Wunderground v.1.15,2013-02-04 13:02:00,
2013-02-04 08:08:00,31.0,19.5,30.25,NW,312,0.0,1.0,62,0.00,,,0.00,Wunderground v.1.15,2013-02-04 13:08:00,
2013-02-04 08:14:00,31.0,19.1,30.25,WNW,297,0.0,1.0,61,0.00,,,0.00,Wunderground v.1.15,2013-02-04 13:14:00,
2013-02-04 08:20:00,31.3,20.2,30.26,SW,219,0.0,1.0,63,0.00,,,0.00,Wunderground v.1.15,2013-02-04 13:20:00,
2013-02-04 08:25:00,31.0,19.1,30.26,SE,135,0.0,1.0,61,0.00,,,0.00,Wunderground v.1.15,2013-02-04 13:25:00,
2013-02-04 08:32:00,30.7,19.2,30.26,SE,145,0.0,1.0,62,0.00,,,0.00,Wunderground v.1.15,2013-02-04 13:32:00,
2013-02-04 08:38:00,30.8,20.8,30.25,SE,145,0.0,1.0,66,0.00,,,0.00,Wunderground v.1.15,2013-02-04 13:38:00,
2013-02-04 08:44:00,30.9,19.8,30.26,SE,145,0.0,1.0,63,0.00,,,0.00,Wunderground v.1.15,2013-02-04 13:44:00,
2013-02-04 08:49:00,31.2,21.2,30.27,SE,146,0.0,1.0,66,0.00,,,0.00,Wunderground v.1.15,2013-02-04 13:49:00,
2013-02-04 08:56:00,31.3,21.6,30.27,SSE,152,0.0,1.0,67,0.00,,,0.00,Wunderground v.1.15,2013-02-04 13:56:00,
2013-02-04 09:02:00,30.7,20.7,30.27,SSE,152,0.0,1.0,66,0.00,,,0.00,Wunderground v.1.15,2013-02-04 14:02:00,
2013-02-04 09:07:00,30.2,20.9,30.27,SW,225,0.0,1.0,68,0.00,,,0.00,Wunderground v.1.15,2013-02-04 14:07:00,
2013-02-04 09:14:00,30.4,21.8,30.27,SW,225,1.0,1.0,70,0.00,,,0.00,Wunderground v.1.15,2013-02-04 14:14:00,
2013-02-04 09:20:00,30.6,20.9,30.27,SW,225,1.0,1.0,67,0.00,,,0.00,Wunderground v.1.15,2013-02-04 14:20:00,
2013-02-04 09:26:00,30.8,20.4,30.27,SSW,207,0.0,1.0,65,0.00,,,0.00,Wunderground v.1.15,2013-02-04 14:26:00,
2013-02-04 09:31:00,30.6,18.7,30.27,SW,214,1.0,1.0,61,0.00,,,0.00,Wunderground v.1.15,2013-02-04 14:31:00,
2013-02-04 09:38:00,30.6,18.3,30.26,SSW,210,1.0,2.0,60,0.00,,,0.00,Wunderground v.1.15,2013-02-04 14:38:00,
2013-02-04 09:44:00,30.6,19.1,30.27,SW,222,2.0,3.0,62,0.00,,,0.00,Wunderground v.1.15,2013-02-04 14:44:00,
2013-02-04 09:50:00,30.9,19.4,30.28,SSW,210,2.0,2.0,62,0.00,,,0.00,Wunderground v.1.15,2013-02-04 14:50:00,
2013-02-04 09:56:00,31.2,20.8,30.28,SSW,200,1.0,2.0,65,0.00,,,0.00,Wunderground v.1.15,2013-02-04 14:56:00,
2013-02-04 10:02:00,31.5,20.3,30.28,SW,226,0.0,1.0,63,0.00,,,0.00,Wunderground v.1.15,2013-02-04 15:02:00,
2013-02-04 10:08:00,31.9,20.0,30.27,SW,219,0.0,1.0,61,0.00,,,0.00,Wunderground v.1.15,2013-02-04 15:08:00,
2013-02-04 10:13:00,32.3,20.3,30.27,SSW,212,0.0,1.0,61,0.00,,,0.00,Wunderground v.1.15,2013-02-04 15:13:00,
2013-02-04 10:20:00,32.8,19.6,30.27,SSW,212,0.0,1.0,58,0.00,,,0.00,Wunderground v.1.15,2013-02-04 15:20:00,
2013-02-04 10:26:00,33.3,20.9,30.27,SSW,197,1.0,1.0,60,0.00,,,0.00,Wunderground v.1.15,2013-02-04 15:26:00,
2013-02-04 10:32:00,34.1,21.3,30.27,SSW,198,1.0,2.0,59,0.00,,,0.00,Wunderground v.1.15,2013-02-04 15:32:00,
2013-02-04 10:38:00,34.9,21.6,30.27,SSW,204,1.0,3.0,58,0.00,,,0.00,Wunderground v.1.15,2013-02-04 15:38:00,
2013-02-04 10:44:00,35.6,23.1,30.27,SSW,198,1.0,1.0,60,0.00,,,0.00,Wunderground v.1.15,2013-02-04 15:44:00,
2013-02-04 10:50:00,36.1,22.3,30.27,SSE,148,1.0,1.0,57,0.00,,,0.00,Wunderground v.1.15,2013-02-04 15:50:00,
2013-02-04 10:55:00,36.6,23.2,30.26,SSW,209,1.0,2.0,58,0.00,,,0.00,Wunderground v.1.15,2013-02-04 15:55:00,
2013-02-04 11:02:00,36.7,22.5,30.27,SSW,211,2.0,3.0,56,0.00,,,0.00,Wunderground v.1.15,2013-02-04 16:02:00,
2013-02-04 11:08:00,37.2,24.6,30.27,South,176,2.0,3.0,60,0.00,,,0.00,Wunderground v.1.15,2013-02-04 16:08:00,
2013-02-04 11:14:00,37.5,22.8,30.27,South,183,1.0,2.0,55,0.00,,,0.00,Wunderground v.1.15,2013-02-04 16:14:00,
2013-02-04 11:19:00,37.9,25.6,30.27,South,187,1.0,2.0,61,0.00,,,0.00,Wunderground v.1.15,2013-02-04 16:19:00,
2013-02-04 11:26:00,38.4,25.3,30.27,ESE,108,1.0,2.0,59,0.00,,,0.00,Wunderground v.1.15,2013-02-04 16:26:00,
2013-02-04 11:32:00,38.6,25.5,30.27,South,172,1.0,2.0,59,0.00,,,0.00,Wunderground v.1.15,2013-02-04 16:32:00,
2013-02-04 11:37:00,38.7,24.8,30.26,South,187,1.0,2.0,57,0.00,,,0.00,Wunderground v.1.15,2013-02-04 16:37:00,
2013-02-04 11:43:00,38.4,25.3,30.26,SE,128,1.0,2.0,59,0.00,,,0.00,Wunderground v.1.15,2013-02-04 16:43:00,
2013-02-04 11:50:00,38.5,24.6,30.25,South,184,1.0,1.0,57,0.00,,,0.00,Wunderground v.1.15,2013-02-04 16:50:00,
2013-02-04 11:56:00,38.8,24.4,30.25,ESE,117,1.0,1.0,56,0.00,,,0.00,Wunderground v.1.15,2013-02-04 16:56:00,
2013-02-04 12:01:00,39.9,25.5,30.25,SE,135,1.0,1.0,56,0.00,,,0.00,Wunderground v.1.15,2013-02-04 17:01:00,
2013-02-04 12:08:00,40.1,26.1,30.25,ESE,107,1.0,1.0,57,0.00,,,0.00,Wunderground v.1.15,2013-02-04 17:08:00,
2013-02-04 12:14:00,40.4,25.9,30.25,SSW,205,1.0,1.0,56,0.00,,,0.00,Wunderground v.1.15,2013-02-04 17:14:00,
2013-02-04 12:19:00,40.6,24.8,30.24,SSE,163,1.0,1.0,53,0.00,,,0.00,Wunderground v.1.15,2013-02-04 17:19:00,
2013-02-04 12:25:00,41.0,26.1,30.24,South,181,1.0,1.0,55,0.00,,,0.00,Wunderground v.1.15,2013-02-04 17:25:00,
2013-02-04 12:32:00,41.2,25.8,30.24,South,191,1.0,1.0,54,0.00,,,0.00,Wunderground v.1.15,2013-02-04 17:32:00,
2013-02-04 12:38:00,41.7,27.1,30.23,SE,130,1.0,1.0,56,0.00,,,0.00,Wunderground v.1.15,2013-02-04 17:38:00,
2013-02-04 12:43:00,42.4,27.8,30.23,ESE,120,1.0,2.0,56,0.00,,,0.00,Wunderground v.1.15,2013-02-04 17:43:00,
2013-02-04 12:50:00,42.9,26.5,30.22,SE,126,1.0,1.0,52,0.00,,,0.00,Wunderground v.1.15,2013-02-04 17:50:00,
2013-02-04 12:56:00,42.9,27.4,30.22,SE,136,2.0,2.0,54,0.00,,,0.00,Wunderground v.1.15,2013-02-04 17:56:00,
2013-02-04 13:02:00,42.7,25.8,30.22,SSE,156,2.0,2.0,51,0.00,,,0.00,Wunderground v.1.15,2013-02-04 18:02:00,
2013-02-04 13:07:00,43.4,26.9,30.22,South,172,2.0,2.0,52,0.00,,,0.00,Wunderground v.1.15,2013-02-04 18:07:00,
2013-02-04 13:14:00,43.6,27.1,30.21,East,98,2.0,3.0,52,0.00,,,0.00,Wunderground v.1.15,2013-02-04 18:14:00,
2013-02-04 13:20:00,44.1,27.1,30.20,ESE,115,2.0,2.0,51,0.00,,,0.01,Wunderground v.1.15,2013-02-04 18:20:00,
2013-02-04 13:25:00,44.6,28.0,30.20,SSW,204,1.0,3.0,52,0.00,,,0.01,Wunderground v.1.15,2013-02-04 18:25:00,
2013-02-04 13:31:00,44.9,27.8,30.20,East,98,2.0,4.0,51,0.00,,,0.01,Wunderground v.1.15,2013-02-04 18:31:00,
2013-02-04 13:38:00,44.9,26.4,30.20,SSW,198,2.0,4.0,48,0.00,,,0.01,Wunderground v.1.15,2013-02-04 18:38:00,
2013-02-04 13:44:00,44.5,25.5,30.19,ESE,117,2.0,2.0,47,0.00,,,0.01,Wunderground v.1.15,2013-02-04 18:44:00,
2013-02-04 13:49:00,45.0,27.5,30.19,SE,141,1.0,2.0,50,0.00,,,0.01,Wunderground v.1.15,2013-02-04 18:49:00,
2013-02-04 13:56:00,45.4,26.3,30.19,ESE,103,1.0,2.0,47,0.00,,,0.01,Wunderground v.1.15,2013-02-04 18:56:00,
2013-02-04 14:02:00,46.1,26.4,30.18,SW,223,1.0,4.0,46,0.00,,,0.02,Wunderground v.1.15,2013-02-04 19:02:00,
2013-02-04 14:07:00,46.3,27.2,30.18,ENE,64,1.0,4.0,47,0.00,,,0.02,Wunderground v.1.15,2013-02-04 19:07:00,
2013-02-04 14:13:00,46.6,26.9,30.18,SE,137,1.0,2.0,46,0.00,,,0.02,Wunderground v.1.15,2013-02-04 19:13:00,
2013-02-04 14:20:00,46.5,24.6,30.18,SSW,209,2.0,2.0,42,0.00,,,0.02,Wunderground v.1.15,2013-02-04 19:20:00,
2013-02-04 14:26:00,45.9,24.6,30.18,SSW,201,2.0,10.0,43,0.00,,,0.02,Wunderground v.1.15,2013-02-04 19:26:00,
2013-02-04 14:31:00,45.7,26.1,30.17,SSE,153,2.0,3.0,46,0.00,,,0.02,Wunderground v.1.15,2013-02-04 19:31:00,
2013-02-04 14:38:00,45.5,25.4,30.17,SSW,198,2.0,3.0,45,0.00,,,0.02,Wunderground v.1.15,2013-02-04 19:38:00,
2013-02-04 14:44:00,45.5,23.1,30.18,SW,231,1.0,3.0,41,0.00,,,0.02,Wunderground v.1.15,2013-02-04 19:44:00,
2013-02-04 14:49:00,45.1,25.0,30.17,SSW,197,2.0,2.0,45,0.00,,,0.02,Wunderground v.1.15,2013-02-04 19:49:00,
2013-02-04 14:55:00,45.1,23.3,30.17,South,190,2.0,4.0,42,0.00,,,0.02,Wunderground v.1.15,2013-02-04 19:55:00,
2013-02-04 15:02:00,45.3,24.1,30.17,ESE,121,2.0,3.0,43,0.00,,,0.02,Wunderground v.1.15,2013-02-04 20:02:00,
2013-02-04 15:08:00,45.2,22.9,30.17,SE,142,2.0,3.0,41,0.00,,,0.02,Wunderground v.1.15,2013-02-04 20:08:00,
2013-02-04 15:13:00,45.5,24.3,30.17,SE,133,1.0,2.0,43,0.00,,,0.02,Wunderground v.1.15,2013-02-04 20:13:00,
2013-02-04 15:20:00,45.3,23.5,30.17,SSW,197,1.0,1.0,42,0.00,,,0.02,Wunderground v.1.15,2013-02-04 20:20:00,
2013-02-04 15:26:00,44.9,22.6,30.17,South,184,2.0,4.0,41,0.00,,,0.02,Wunderground v.1.15,2013-02-04 20:26:00,
2013-02-04 15:32:00,44.6,22.3,30.17,West,259,3.0,3.0,41,0.00,,,0.02,Wunderground v.1.15,2013-02-04 20:32:00,
2013-02-04 15:37:00,44.5,23.9,30.16,SE,132,2.0,3.0,44,0.00,,,0.02,Wunderground v.1.15,2013-02-04 20:37:00,
2013-02-04 15:44:00,44.5,24.5,30.17,SSW,208,1.0,3.0,45,0.00,,,0.02,Wunderground v.1.15,2013-02-04 20:44:00,
2013-02-04 15:50:00,44.5,22.8,30.17,SSW,212,1.0,3.0,42,0.00,,,0.02,Wunderground v.1.15,2013-02-04 20:50:00,
2013-02-04 15:56:00,44.2,22.5,30.17,SSW,205,2.0,5.0,42,0.00,,,0.02,Wunderground v.1.15,2013-02-04 20:56:00,
2013-02-04 16:01:00,44.0,22.4,30.17,SSW,213,2.0,3.0,42,0.00,,,0.02,Wunderground v.1.15,2013-02-04 21:01:00,
2013-02-04 16:08:00,43.8,22.7,30.17,WSW,253,2.0,5.0,43,0.00,,,0.02,Wunderground v.1.15,2013-02-04 21:08:00,
2013-02-04 16:14:00,43.7,23.2,30.17,SE,135,2.0,2.0,44,0.00,,,0.02,Wunderground v.1.15,2013-02-04 21:14:00,
2013-02-04 16:20:00,43.4,22.9,30.17,SW,218,1.0,1.0,44,0.00,,,0.02,Wunderground v.1.15,2013-02-04 21:20:00,
2013-02-04 16:25:00,43.1,22.1,30.17,SW,229,1.0,3.0,43,0.00,,,0.02,Wunderground v.1.15,2013-02-04 21:25:00,
2013-02-04 16:32:00,42.9,23.0,30.17,SW,225,1.0,1.0,45,0.00,,,0.02,Wunderground v.1.15,2013-02-04 21:32:00,
2013-02-04 16:38:00,42.6,23.8,30.17,ESE,107,1.0,1.0,47,0.00,,,0.02,Wunderground v.1.15,2013-02-04 21:38:00,
2013-02-04 16:44:00,42.4,23.1,30.17,ESE,104,0.0,1.0,46,0.00,,,0.02,Wunderground v.1.15,2013-02-04 21:44:00,
2013-02-04 16:49:00,42.1,23.8,30.17,SW,219,1.0,1.0,48,0.00,,,0.02,Wunderground v.1.15,2013-02-04 21:49:00,
2013-02-04 16:56:00,41.9,23.6,30.17,SW,225,0.0,1.0,48,0.00,,,0.02,Wunderground v.1.15,2013-02-04 21:56:00,
2013-02-04 17:02:00,41.5,24.7,30.16,SW,217,1.0,2.0,51,0.00,,,0.02,Wunderground v.1.15,2013-02-04 22:02:00,
2013-02-04 17:07:00,41.4,24.1,30.16,SSW,207,1.0,3.0,50,0.00,,,0.02,Wunderground v.1.15,2013-02-04 22:07:00,
2013-02-04 17:13:00,41.2,24.4,30.16,SSW,199,1.0,1.0,51,0.00,,,0.02,Wunderground v.1.15,2013-02-04 22:13:00,
2013-02-04 17:20:00,40.9,24.1,30.15,SSW,208,1.0,1.0,51,0.00,,,0.02,Wunderground v.1.15,2013-02-04 22:20:00,
2013-02-04 17:26:00,40.7,24.0,30.15,ESE,118,1.0,1.0,51,0.00,,,0.02,Wunderground v.1.15,2013-02-04 22:26:00,
2013-02-04 17:31:00,40.3,23.6,30.15,SSW,210,1.0,2.0,51,0.00,,,0.02,Wunderground v.1.15,2013-02-04 22:31:00,
2013-02-04 17:38:00,40.0,23.3,30.15,SSW,200,2.0,3.0,51,0.00,,,0.02,Wunderground v.1.15,2013-02-04 22:38:00,
2013-02-04 17:44:00,39.6,23.4,30.15,SSW,205,2.0,2.0,52,0.00,,,0.02,Wunderground v.1.15,2013-02-04 22:44:00,
2013-02-04 17:49:00,39.4,23.2,30.15,SW,219,1.0,1.0,52,0.00,,,0.02,Wunderground v.1.15,2013-02-04 22:49:00,
2013-02-04 17:55:00,39.2,22.6,30.15,SW,222,1.0,2.0,51,0.00,,,0.02,Wunderground v.1.15,2013-02-04 22:55:00,
2013-02-04 18:02:00,38.8,22.7,30.15,SW,235,1.0,2.0,52,0.00,,,0.02,Wunderground v.1.15,2013-02-04 23:02:00,
2013-02-04 18:08:00,38.7,22.1,30.15,SSW,212,1.0,2.0,51,0.00,,,0.02,Wunderground v.1.15,2013-02-04 23:08:00,
2013-02-04 18:13:00,38.4,22.3,30.15,SW,224,1.0,2.0,52,0.00,,,0.02,Wunderground v.1.15,2013-02-04 23:13:00,
2013-02-04 18:20:00,38.0,22.4,30.15,SW,227,1.0,2.0,53,0.00,,,0.02,Wunderground v.1.15,2013-02-04 23:20:00,
2013-02-04 18:26:00,37.9,22.3,30.15,SSW,195,2.0,3.0,53,0.00,,,0.02,Wunderground v.1.15,2013-02-04 23:26:00,
2013-02-04 18:31:00,37.6,22.0,30.15,SSW,205,2.0,2.0,53,0.00,,,0.02,Wunderground v.1.15,2013-02-04 23:31:00,
2013-02-04 18:37:00,37.5,22.3,30.15,SW,217,2.0,2.0,54,0.00,,,0.02,Wunderground v.1.15,2013-02-04 23:37:00,
2013-02-04 18:44:00,37.4,21.8,30.16,SW,215,2.0,2.0,53,0.00,,,0.02,Wunderground v.1.15,2013-02-04 23:44:00,
2013-02-04 18:50:00,37.4,21.8,30.16,SSE,148,2.0,2.0,53,0.00,,,0.02,Wunderground v.1.15,2013-02-04 23:50:00,
2013-02-04 18:56:00,37.1,21.5,30.15,WSW,243,2.0,3.0,53,0.00,,,0.02,Wunderground v.1.15,2013-02-04 23:56:00,
2013-02-04 19:01:00,37.1,22.4,30.15,SE,132,2.0,2.0,55,0.00,,,0.02,Wunderground v.1.15,2013-02-05 00:01:00,
2013-02-04 19:08:00,36.9,21.8,30.16,SW,217,2.0,2.0,54,0.00,,,0.02,Wunderground v.1.15,2013-02-05 00:08:00,
2013-02-04 19:14:00,36.9,21.3,30.16,SW,228,1.0,2.0,53,0.00,,,0.02,Wunderground v.1.15,2013-02-05 00:14:00,
2013-02-04 19:20:00,36.8,21.7,30.16,WSW,246,1.0,1.0,54,0.00,,,0.02,Wunderground v.1.15,2013-02-05 00:20:00,
2013-02-04 19:25:00,36.9,21.8,30.16,SSW,199,1.0,2.0,54,0.00,,,0.02,Wunderground v.1.15,2013-02-05 00:25:00,
2013-02-04 19:32:00,36.7,21.6,30.16,SW,218,2.0,2.0,54,0.00,,,0.02,Wunderground v.1.15,2013-02-05 00:32:00,
2013-02-04 19:38:00,36.8,21.3,30.16,South,190,2.0,3.0,53,0.00,,,0.02,Wunderground v.1.15,2013-02-05 00:38:00,
2013-02-04 19:43:00,36.8,21.3,30.16,South,191,2.0,2.0,53,0.00,,,0.02,Wunderground v.1.15,2013-02-05 00:43:00,
2013-02-04 19:50:00,36.6,21.1,30.16,SW,215,1.0,2.0,53,0.00,,,0.02,Wunderground v.1.15,2013-02-05 00:50:00,
2013-02-04 19:56:00,36.6,21.1,30.16,SSW,211,1.0,2.0,53,0.00,,,0.02,Wunderground v.1.15,2013-02-05 00:56:00,
2013-02-04 20:01:00,36.6,21.1,30.16,SW,215,0.0,1.0,53,0.00,,,0.02,Wunderground v.1.15,2013-02-05 01:01:00,
2013-02-04 20:07:00,36.5,21.0,30.15,ESE,106,0.0,1.0,53,0.00,,,0.02,Wunderground v.1.15,2013-02-05 01:07:00,
2013-02-04 20:14:00,36.6,20.6,30.16,ESE,107,0.0,1.0,52,0.00,,,0.02,Wunderground v.1.15,2013-02-05 01:14:00,
2013-02-04 20:20:00,36.5,21.0,30.16,SW,229,0.0,1.0,53,0.00,,,0.02,Wunderground v.1.15,2013-02-05 01:20:00,
2013-02-04 20:25:00,36.6,20.6,30.15,ENE,58,0.0,1.0,52,0.00,,,0.02,Wunderground v.1.15,2013-02-05 01:25:00,
2013-02-04 20:31:00,36.5,20.5,30.15,South,187,1.0,1.0,52,0.00,,,0.02,Wunderground v.1.15,2013-02-05 01:31:00,
2013-02-04 20:37:00,36.4,20.4,30.16,West,264,1.0,2.0,52,0.00,,,0.02,Wunderground v.1.15,2013-02-05 01:37:00,
2013-02-04 20:44:00,36.5,20.5,30.15,SW,217,1.0,1.0,52,0.00,,,0.02,Wunderground v.1.15,2013-02-05 01:44:00,
2013-02-04 20:50:00,36.5,20.5,30.16,SE,132,1.0,1.0,52,0.00,,,0.02,Wunderground v.1.15,2013-02-05 01:50:00,
2013-02-04 20:56:00,36.4,20.9,30.16,WSW,255,1.0,2.0,53,0.00,,,0.02,Wunderground v.1.15,2013-02-05 01:56:00,
2013-02-04 21:01:00,36.5,20.5,30.16,ESE,113,1.0,2.0,52,0.00,,,0.02,Wunderground v.1.15,2013-02-05 02:01:00,
2013-02-04 21:08:00,36.7,20.3,30.16,WSW,248,1.0,2.0,51,0.00,,,0.02,Wunderground v.1.15,2013-02-05 02:08:00,
2013-02-04 21:14:00,37.0,20.5,30.16,SW,231,1.0,2.0,51,0.00,,,0.02,Wunderground v.1.15,2013-02-05 02:14:00,
2013-02-04 21:20:00,37.3,20.3,30.16,WNW,297,0.0,4.0,50,0.00,,,0.02,Wunderground v.1.15,2013-02-05 02:20:00,
2013-02-04 21:26:00,37.5,20.5,30.16,SW,224,1.0,4.0,50,0.00,,,0.02,Wunderground v.1.15,2013-02-05 02:26:00,
2013-02-04 21:32:00,37.4,20.4,30.16,ESE,120,1.0,1.0,50,0.00,,,0.02,Wunderground v.1.15,2013-02-05 02:32:00,
2013-02-04 21:38:00,37.5,20.5,30.16,SSE,163,1.0,3.0,50,0.00,,,0.02,Wunderground v.1.15,2013-02-05 02:38:00,
2013-02-04 21:44:00,37.6,20.1,30.16,SSE,158,1.0,1.0,49,0.00,,,0.02,Wunderground v.1.15,2013-02-05 02:44:00,
2013-02-04 21:50:00,37.7,20.2,30.16,SSE,167,1.0,1.0,49,0.00,,,0.02,Wunderground v.1.15,2013-02-05 02:50:00,
2013-02-04 21:55:00,37.6,20.1,30.16,East,80,0.0,1.0,49,0.00,,,0.02,Wunderground v.1.15,2013-02-05 02:55:00,
2013-02-04 22:02:00,37.4,20.9,30.16,WSW,245,0.0,1.0,51,0.00,,,0.02,Wunderground v.1.15,2013-02-05 03:02:00,
2013-02-04 22:08:00,37.5,21.0,30.16,SW,229,0.0,1.0,51,0.00,,,0.02,Wunderground v.1.15,2013-02-05 03:08:00,
2013-02-04 22:14:00,37.5,20.5,30.15,NE,39,0.0,1.0,50,0.00,,,0.02,Wunderground v.1.15,2013-02-05 03:14:00,
2013-02-04 22:19:00,37.5,20.1,30.15,North,5,0.0,1.0,49,0.00,,,0.02,Wunderground v.1.15,2013-02-05 03:19:00,
2013-02-04 22:25:00,37.6,20.1,30.14,NE,56,1.0,1.0,49,0.00,,,0.02,Wunderground v.1.15,2013-02-05 03:25:00,
2013-02-04 22:32:00,37.6,20.6,30.14,SSW,205,1.0,1.0,50,0.00,,,0.02,Wunderground v.1.15,2013-02-05 03:32:00,
2013-02-04 22:38:00,37.5,20.5,30.14,SW,229,1.0,1.0,50,0.00,,,0.02,Wunderground v.1.15,2013-02-05 03:38:00,
2013-02-04 22:43:00,37.4,21.4,30.14,West,269,1.0,2.0,52,0.00,,,0.02,Wunderground v.1.15,2013-02-05 03:43:00,
2013-02-04 22:49:00,37.3,20.3,30.14,WSW,246,1.0,1.0,50,0.00,,,0.02,Wunderground v.1.15,2013-02-05 03:49:00,
2013-02-04 22:55:00,37.3,20.3,30.14,SSW,198,0.0,1.0,50,0.00,,,0.02,Wunderground v.1.15,2013-02-05 03:55:00,
2013-02-04 23:02:00,37.2,19.8,30.13,WSW,248,1.0,2.0,49,0.00,,,0.02,Wunderground v.1.15,2013-02-05 04:02:00,
2013-02-04 23:08:00,37.0,20.1,30.13,ENE,70,1.0,2.0,50,0.00,,,0.02,Wunderground v.1.15,2013-02-05 04:08:00,
2013-02-04 23:13:00,36.8,20.3,30.13,ENE,75,1.0,4.0,51,0.00,,,0.02,Wunderground v.1.15,2013-02-05 04:13:00,
2013-02-04 23:19:00,36.4,20.9,30.12,WSW,241,1.0,2.0,53,0.00,,,0.02,Wunderground v.1.15,2013-02-05 04:19:00,
2013-02-04 23:25:00,36.6,20.2,30.13,North,11,1.0,3.0,51,0.00,,,0.02,Wunderground v.1.15,2013-02-05 04:25:00,
2013-02-04 23:32:00,36.8,20.3,30.12,ENE,70,2.0,2.0,51,0.00,,,0.02,Wunderground v.1.15,2013-02-05 04:32:00,
2013-02-04 23:38:00,36.8,19.9,30.12,ENE,61,1.0,2.0,50,0.00,,,0.02,Wunderground v.1.15,2013-02-05 04:38:00,
2013-02-04 23:43:00,37.2,20.2,30.12,NNW,348,1.0,3.0,50,0.00,,,0.02,Wunderground v.1.15,2013-02-05 04:43:00,
2013-02-04 23:50:00,37.1,20.6,30.12,North,356,1.0,2.0,51,0.00,,,0.02,Wunderground v.1.15,2013-02-05 04:50:00,
2013-02-04 23:55:00,37.1,20.2,30.12,SW,231,1.0,2.0,50,0.00,,,0.02,Wunderground v.1.15,2013-02-05 04:55:00,